Location: Waco, TX
(31.5480°N, 97.1670°W)
Time: 11:36:58
(UTC-05:00)

ISS - Pass Details

Date: 14 March 2018
Orbit: 403 x 408 km, 51.6° (Epoch: 20 September)

Event Time Altitude Azimuth Distance (km) Brightness Sun altitude
Rises 00:27:11 0° 221° (SW) 2,360 - -56.5°
Reaches altitude 10° 00:29:16 10° 220° (SW) 1,499 - -56.8°
Maximum altitude 00:32:38 78° 134° (SE) 434 - -57.2°
Drops below altitude 10° 00:36:00 10° 48° (NE) 1,503 - -57.5°
Sets 00:38:07 0° 47° (NE) 2,368 - -57.7°
